www.pogodaiklimat.ru

Погода и климат >> Архив погоды >> Россия >> Чукотка >> Айон Остров


ПОГОДА на Айон Острове

  • Прогноз погоды на Айон Острове
  • Монитор погоды на Айон Острове
  • Климат города

АРХИВ ПОГОДЫ на Айон Острове

Время (UTC), дата Ветер
(напр.,м/с)
 
Видим.   Явления Облачность Т
(С)
Тd
(С)
f
(%)
Тe
(С)
Тes
(С)
Комфортность P
(гПа)
Po
(гПа)
Тmin
(С)
Tmax
(С)
R
(мм)
R24
(мм)
S
(см)
09 18.04 ЮВ 11-13
{15}
20 км сильный позёмок {метель} 1/0
[Ac trans]
-4.4 -5.3 93 -14 -14 1018.3 1016.5 -1.2
12 18.04 ЮВ 10-11
{15}
20 км позёмок {метель} 3/0
[Ac trans]
-7.0 -7.9 93 -17 -17 1020.2 1018.4
15 18.04 ЮВ 10-11
{15}
20 км позёмок {метель} 3/0
[Ac trans]
-7.0 -7.9 93 -17 -17 1020.2 1018.4
18 18.04 Ю 9-10
{11}
20 км позёмок {метель} 3/0
[Ac trans]
-10.3 -11.9 88 -21 -21 1021.6 1019.8
21 18.04 Ю 7-8
{10}
20 км позёмок {метель} 6/0
[Ac trans Ci fib]
-8.7 -10.5 87 -18 -17 1023.1 1021.3 -10.9 10
00 19.04 ЮЗ 4-5
{8}
20 км {метель} 9/0
[Ac trans]
-1.9 -3.7 87 -8 -6 1024.9 1023.1
03 19.04 З 2-3
{6}
20 км 1/0
[Ac trans]
-1.9 -3.7 87 -6 -1 1026.7 1024.9
06 19.04 Ю 2-3
{4}
20 км ясно -4.4 -6.0 89 -9 -7 1027.6 1025.8
09 19.04 В 4-5
{6}
20 км 6/0
[Ac trans Ci fib]
-6.3 -7.8 89 -13 -13 1027.8 1026.0 -1.0
12 19.04 ЮВ 6-8
{8}
20 км позёмок {метель} 10/0
[Ac und]
-6.8 -8.0 91 -15 -15 1027.2 1025.4
15 19.04 ЮВ 8-9
{10}
20 км позёмок {метель} 10/0
[Ac und]
-8.0 -9.4 90 -17 -17 1026.2 1024.4
18 19.04 ЮВ 8-9
{14}
20 км позёмок {метель} 10/0
[Ac trans Ci fib]
-6.5 -8.1 88 -16 -16 1025.5 1023.7
21 19.04 ЮВ 6-7
{9}
20 км позёмок {метель} 6/0
[Ac trans Ci fib]
-7.1 -8.6 89 -15 -14 1024.5 1022.7 -8.1 10
00 20.04 Ю 6-6
{9}
20 км позёмок {метель} 3/0
[Ci fib]
-5.4 -7.6 84 -13 -11 1024.2 1022.4
03 20.04 ЮЗ 4-4
{6}
20 км {метель} 3/0
[Ci fib]
-3.7 -5.8 85 -10 -6 1024.2 1022.4
06 20.04 Ю 4-5
{5}
20 км {метель} 3/0
[Ac trans Ci fib]
-3.9 -5.7 87 -10 -9 1024.2 1022.4
09 20.04 Ю 5-5
{6}
20 км 3/0
[Ac trans Ci fib]
-7.2 -8.9 88 -15 -15 1024.4 1022.6 -2.5
12 20.04 Ю 6-6
{7}
20 км позёмок {метель} 3/0
[Ci fib]
-9.1 -10.2 92 -18 -18 1024.7 1022.9
15 20.04 Ю 6-7
{7}
20 км позёмок {метель} 6/0
[Ac trans Ci fib]
-6.8 -8.4 88 -15 -15 1023.8 1022.0
18 20.04 ЮВ 7-7
{8}
20 км позёмок {метель} 10/0
[Ac und]
-6.1 -8.2 85 -15 -15 1023.1 1021.3
21 20.04 ЮВ 7-8
{9}
20 км позёмок {метель} 8/0
[Ac trans Ci fib]
-4.7 -5.8 92 -13 -12 1022.9 1021.1 -9.8 10
00 21.04 Ю 7-8
{9}
20 км позёмок {метель} 10/0
[Ac und]
-1.5 -2.7 92 -9 -9 1022.6 1020.8
03 21.04 Ю 6-6
{8}
20 км позёмок {метель} 10/0
[Ac und]
+0.3 -1.1 90 -6 -6 1022.6 1020.8
06 21.04 Ю 3-4
{7}
20 км {метель} 10/0
[Ac und]
+0.2 -1.2 90 -5 -4 1022.8 1021.0
09 21.04 Ю 6-7
{7}
20 км позёмок {метель} 6/0
[Ac trans]
-3.5 -4.6 92 -11 -11 1023.6 1021.8 +0.7
12 21.04 Ю 4-5
{7}
20 км {метель} 8/0
[Ac trans]
-4.3 -5.9 89 -11 -11 1024.0 1022.2
15 21.04 ЮВ 5-5
{6}
20 км 8/0
[Ac trans]
-4.2 -5.8 89 -11 -11 1024.2 1022.4
18 21.04 ЮВ 3-4
{5}
20 км 4/0
[Ac trans]
-4.4 -6.0 89 -10 -10 1024.4 1022.6
21 21.04 СВ 2-3
{6}
20 км 4/0
[Ac trans]
-5.8 -7.9 85 -10 -7 1024.8 1023.0 -7.7 10
00 22.04 штиль 0
{5}
20 км 8/0
[Ac trans Ci fib]
+0.7 -1.8 83 -0 +5 1024.7 1022.9
03 22.04 В 3-4
{5}
20 км 8/0
[Ac trans Ci fib]
+0.4 -1.6 86 -4 -1 1024.5 1022.7
06 22.04 В 4-5
{6}
20 км 6/0
[Ac trans Ci fib]
-1.9 -3.7 87 -8 -7 1024.5 1022.7
09 22.04 ЮВ 5-6
{6}
20 км 3/0
[Ac trans]
-5.3 -7.1 87 -13 -13 1024.8 1023.0 +1.5
12 22.04 ЮВ 6-7
{8}
20 км позёмок {метель} 4/0
[Ac trans]
-6.2 -7.8 88 -14 -14 1024.8 1023.0
15 22.04 В 6-6
{7}
20 км позёмок {метель} 3/0
[Ac trans]
-7.3 -8.1 94 -16 -16 1025.2 1023.4
18 22.04 В 4-5
{7}
20 км {метель} 3/0
[Ac trans]
-6.9 -8.5 88 -14 -13 1025.7 1023.9
21 22.04 В 2-3
{5}
20 км ясно -6.4 -8.2 87 -11 -7 1025.8 1024.0 -9.8 10
00 23.04 В 2-3
{4}
20 км 3/0
[Ci fib]
-3.0 -6.0 80 -7 -1 1025.8 1024.0
03 23.04 В 2-2
{4}
20 км 3/0
[Ac trans Ci fib]
-2.2 -4.5 84 -6 -1 1025.5 1023.7
06 23.04 ЮВ 1-2
{3}
20 км 3/0
[Ci fib]
-3.9 -5.8 87 -6 -4 1025.5 1023.7
09 23.04 В 3-3
{4}
500 м переохл. туман ?/? -8.1 -8.3 98 -14 -14 1025.6 1023.8 -1.2
12 23.04 СЗ 1-2
{3}
500 м переохл. туман 6/0
[Ac trans Ci fib]
-9.1 -9.4 98 -12 -12 1025.9 1024.1
15 23.04 СВ 5-6
{7}
20 км {туман} 4/0
[Ci fib]
-8.6 -10.1 89 -16 -16 1025.2 1023.4
18 23.04 С 6-8
{8}
20 км {туман} 8/0
[Ac trans Ci fib]
-8.6 -10.1 89 -17 -17 1025.5 1023.7
21 23.04 СВ 3-4
{8}
20 км 10/10 210 м
[St]
-4.8 -6.5 88 -10 -10 1025.8 1024.0 -10.7 10
00 24.04 С 3-4
{5}
20 км 8/5 200 м
[St Ac trans]
-3.5 -4.9 90 -9 -7 1025.4 1023.6
03 24.04 С 3-5
{6}
20 км 9/9 270 м
[St]
-3.5 -5.1 89 -9 -8 1025.0 1023.2
06 24.04 С 3-5
{6}
20 км 10/10 180 м
[St]
-5.0 -6.7 88 -11 -11 1024.5 1022.7
09 24.04 СЗ 3-3
{5}
4000 м дымка 10/10 90 м
[St]
-6.7 -7.0 98 -13 -13 1024.2 1022.4 -2.9
12 24.04 СЗ 3-4
{4}
4000 м дымка 10/10 120 м
[St]
-7.6 -7.8 98 -14 -14 1023.6 1021.8
15 24.04 СЗ 3-4
{4}
200 м переохл. туман ?/? -9.0 -9.3 98 -15 -15 1022.8 1021.0
18 24.04 З 2-3
{4}
200 м переохл. туман ?/? -10.5 -10.5 100 -15 -15 1022.4 1020.6
21 24.04 З 2-2
{3}
200 м переохл. туман ?/? -9.6 -9.9 98 -14 -14 1022.0 1020.2 -10.7 10
00 25.04 ЮЗ 2-2
{3}
500 м переохл. туман ?/? -8.1 -8.3 98 -13 -13 1021.4 1019.6
03 25.04 СЗ 2-3
{4}
500 м переохл. туман ?/? -6.1 -6.3 98 -11 -11 1020.3 1018.5

 

Местоположение метеостанции Айон Остров (Чукотка, Россия): широта 69.93 долгота 167.90 высота над уровнем моря 14 м.

В архиве по умолчанию представлена погода на Айон Острове за последнюю неделю. Архивные данные за месяц целиком и за предыдущие месяцы, начиная с января 2011 года, Вы можете получить, выбрав интересующий диапазон дат из раскрывающегося списка и нажав кнопку "Ввод!".

Внимание! Время в таблицах - всемирное. Для получения местного времени необходимо прибавить поправку, которая на Айон Острове равна 12 ч.

Смотрите также архив погоды в соседних городах и на ближайших метеорологических станциях:

Погода в Раучуе (Чукотка, Россия) (72 км)
Погода в Певеке (Чукотка, Россия) (92 км)
Погода в Валькаркае (Чукотка, Россия) (115 км)
Погода в 21 км (Чукотка, Россия) (117 км)
Погода в Чауне (Чукотка, Россия) (160 км)
Погода в Комсомольской (Чукотка, Россия) (211 км)
Погода в Билибино (Чукотка, Россия) (217 км)
Погода в Бухте Амбарчик (Чукотка, Россия) (218 км)
Погода на Островном (Чукотка, Россия) (252 км)
Погода в Паляваам-Глубокой (Чукотка, Россия) (257 км)

Пояснения к столбцам:

Ветер - указаны скорость ветра в м/с - средняя за 10 мин, порывы в срок и между сроками (в фигурных скобках) и направление, откуда дует ветер: С - северный, СВ - северо-восточный, В - восточный, ЮВ - юго-восточный, Ю - южный, ЮЗ - юго-западный, З - западный, СЗ - северо-западный.
Видимость - горизонтальная дальность видимости в метрах или километрах. При видимости от 1 до 10 км при отсутствии осадков обычно наблюдается дымка, при ухудшении видимости до 1 км и менее - туман. В сухую погоду видимость может ухудшаться дымом, пылью или мглою.
Явления - указаны атмосферные явления, наблюдавшиеся в срок или в последний час перед сроком; фигурными скобками обозначены явления, наблюдавшиеся между сроками (за 1-3 часа до срока); квадратными скобками обозначены град или гололедные отложения с указанием их диаметра в мм.
Облачность - указаны через наклонную черту общая и нижняя облачность в баллах и высота нижней границы облаков в метрах; квадратными скобками обозначены формы облаков: Ci - перистые, Cs - перисто-слоистые, Cc - перисто-кучевые, Ac - высококучевые, As - высокослоистые, Sc - слоисто-кучевые, Ns - слоисто-дождевые, Cu - кучевые, Cb - кучево-дождевые. Подробнее классификацию облаков см. в Атласе облаков (PDF).
T - Температура воздуха - температура, измеренная на высоте 2 м над землей.
Td - Температура точки росы - температура, при понижении до которой содержащийся в воздухе водяной пар достигнет насыщения.
f - Относительная влажность воздуха - влажноcть воздуха, измеренная на высоте 2 м над землей.
Te - Эффективная температура - температура, которую ощущает одетый по сезону человек в тени. Характеристика душности погоды. При расчете учитывается влияние влажности воздуха и скорости ветра на теплоощущения человека.
Tes - Эффективная температура на солнце - температура, которую ощущает человек, с поправкой на солнечный нагрев. Характеристика знойности погоды. Зависит от высоты солнца над горизонтом, облачности и скорости ветра. Ночью, в пасмурную погоду, а также при ветре 12 м/с и более поправка равна нулю.
P - Атмосферное давление - приведенное к уровню моря атмосферное давление.
Po - Атмосферное давление - измеренное на уровне метеостанции атмосферное давление.
Tmin - Минимальная температура - минимум температуры воздуха на высоте 2 м над землей.
Tmax - Максимальная температура - максимум температуры воздуха на высоте 2 м над землей.
R - Количество осадков - Количество выпавших осадков за период времени, мм. При наведении курсора мыши на число - период времени, за который выпало указанное количество осадков.
R24 - Количество осадков - Количество выпавших осадков за 24 часа, мм.
S - Снежный покров - Высота снежного покрова, см. При наведении курсора мыши на число - состояние снежного покрова и степень покрытия местности в баллах.